Time,TemperatureF,DewpointF,PressureIn,WindDirection,WindDirectionDegrees,WindSpeedMPH,WindSpeedGustMPH,Humidity,HourlyPrecipIn,Conditions,Clouds,dailyrainin,SoftwareType,DateUTC
2013-03-06 00:15:00,48.7,48.4,29.62,SSE,158,7.7,16.1,99,0.00,,,0.00,WSDL version 420,2013-03-06 08:15:00,
2013-03-06 00:20:00,48.7,48.4,29.62,SW,214,8.2,16.1,99,0.04,,,0.04,WSDL version 420,2013-03-06 08:20:00,
2013-03-06 00:25:00,48.7,48.4,29.62,South,180,7.3,15.2,99,0.04,,,0.04,WSDL version 420,2013-03-06 08:25:00,
2013-03-06 00:36:00,48.7,48.7,29.62,South,188,9.0,13.2,100,0.04,,,0.04,WSDL version 420,2013-03-06 08:36:00,
2013-03-06 00:51:00,48.7,48.7,29.62,SSW,197,6.8,17.2,100,0.04,,,0.04,WSDL version 420,2013-03-06 08:51:00,
2013-03-06 01:14:00,48.9,48.9,29.65,North,-999,-999.0,-999.0,100,0.08,,,0.08,WSDL version 420,2013-03-06 09:14:00,
2013-03-06 01:19:00,48.9,48.9,29.65,SSW,203,6.6,10.3,100,0.08,,,0.08,WSDL version 420,2013-03-06 09:19:00,
2013-03-06 02:18:00,48.9,47.4,29.65,SSW,203,10.1,10.1,94,0.00,,,0.08,WSDL version 420,2013-03-06 10:18:00,
2013-03-06 02:23:00,49.1,47.0,29.65,SSW,210,7.5,13.2,91,0.00,,,0.08,WSDL version 420,2013-03-06 10:23:00,
2013-03-06 02:28:00,49.1,46.5,29.65,SSW,203,6.1,13.2,91,0.00,,,0.08,WSDL version 420,2013-03-06 10:28:00,
2013-03-06 02:33:00,49.1,46.6,29.68,SW,219,5.5,9.8,91,0.00,,,0.08,WSDL version 420,2013-03-06 10:33:00,
2013-03-06 02:38:00,49.2,46.5,29.68,SW,214,5.8,10.3,90,0.00,,,0.08,WSDL version 420,2013-03-06 10:38:00,
2013-03-06 02:43:00,49.5,46.7,29.68,SSW,208,7.9,10.7,90,0.00,,,0.08,WSDL version 420,2013-03-06 10:43:00,
2013-03-06 02:48:00,49.8,47.0,29.68,SSW,210,7.3,12.5,90,0.00,,,0.08,WSDL version 420,2013-03-06 10:48:00,
2013-03-06 02:53:00,50.1,47.5,29.68,SW,218,8.1,12.5,91,0.00,,,0.08,WSDL version 420,2013-03-06 10:53:00,
2013-03-06 02:58:00,50.2,47.9,29.68,SSW,195,4.9,12.3,92,0.00,,,0.08,WSDL version 420,2013-03-06 10:58:00,
2013-03-06 03:03:00,50.0,47.8,29.68,SSW,203,5.3,10.7,92,0.00,,,0.08,WSDL version 420,2013-03-06 11:03:00,
2013-03-06 03:08:00,50.1,47.9,29.68,SW,225,6.5,8.5,92,0.00,,,0.08,WSDL version 420,2013-03-06 11:08:00,
2013-03-06 03:13:00,50.2,47.7,29.68,SW,236,6.5,12.8,90,0.00,,,0.08,WSDL version 420,2013-03-06 11:13:00,
2013-03-06 03:18:00,50.4,47.1,29.68,SW,219,6.6,12.8,88,0.00,,,0.08,WSDL version 420,2013-03-06 11:18:00,
2013-03-06 03:23:00,50.5,46.8,29.68,SSW,210,7.3,12.5,87,0.00,,,0.08,WSDL version 420,2013-03-06 11:23:00,
2013-03-06 03:28:00,50.5,46.3,29.68,SW,233,4.2,12.5,85,0.00,,,0.08,WSDL version 420,2013-03-06 11:28:00,
2013-03-06 03:33:00,50.4,45.9,29.68,SSW,212,6.6,10.5,83,0.00,,,0.08,WSDL version 420,2013-03-06 11:33:00,
2013-03-06 03:38:00,50.5,45.1,29.68,SSW,212,5.8,13.0,81,0.00,,,0.08,WSDL version 420,2013-03-06 11:38:00,
2013-03-06 03:43:00,50.4,44.6,29.68,SW,218,8.0,15.2,80,0.00,,,0.08,WSDL version 420,2013-03-06 11:43:00,
2013-03-06 03:48:00,50.5,44.1,29.68,SW,233,8.1,15.2,78,0.00,,,0.08,WSDL version 420,2013-03-06 11:48:00,
2013-03-06 03:53:00,50.5,44.2,29.68,SSE,158,6.7,13.0,79,0.00,,,0.08,WSDL version 420,2013-03-06 11:53:00,
2013-03-06 03:58:00,50.3,44.4,29.68,North,-999,-999.0,-999.0,80,0.00,,,0.08,WSDL version 420,2013-03-06 11:58:00,
2013-03-06 04:03:00,50.1,44.6,29.68,North,-999,-999.0,-999.0,82,0.00,,,0.08,WSDL version 420,2013-03-06 12:03:00,
2013-03-06 04:08:00,49.8,44.9,29.68,North,-999,-999.0,-999.0,83,0.00,,,0.08,WSDL version 420,2013-03-06 12:08:00,
2013-03-06 04:13:00,49.8,44.9,29.68,SSW,203,7.2,7.2,83,0.00,,,0.08,WSDL version 420,2013-03-06 12:13:00,
2013-03-06 04:18:00,49.6,44.4,29.71,WSW,240,5.5,7.2,82,0.00,,,0.08,WSDL version 420,2013-03-06 12:18:00,
2013-03-06 04:23:00,49.6,43.8,29.71,SW,225,7.7,9.6,80,0.00,,,0.08,WSDL version 420,2013-03-06 12:23:00,
2013-03-06 04:28:00,49.6,43.6,29.71,SSW,203,4.7,9.6,80,0.00,,,0.08,WSDL version 420,2013-03-06 12:28:00,
2013-03-06 04:33:00,49.4,43.5,29.71,South,180,3.7,8.1,80,0.00,,,0.08,WSDL version 420,2013-03-06 12:33:00,
2013-03-06 04:38:00,49.2,43.0,29.71,SSW,203,5.8,8.7,79,0.00,,,0.08,WSDL version 420,2013-03-06 12:38:00,
2013-03-06 04:43:00,49.0,42.8,29.71,WSW,248,2.9,8.7,79,0.00,,,0.08,WSDL version 420,2013-03-06 12:43:00,
2013-03-06 04:48:00,48.9,42.5,29.71,WSW,244,7.5,14.1,78,0.00,,,0.08,WSDL version 420,2013-03-06 12:48:00,
2013-03-06 04:53:00,48.8,42.3,29.71,SW,219,4.9,14.1,78,0.00,,,0.08,WSDL version 420,2013-03-06 12:53:00,
2013-03-06 04:58:00,48.6,42.3,29.71,SW,214,3.5,13.0,79,0.00,,,0.08,WSDL version 420,2013-03-06 12:58:00,
2013-03-06 05:03:00,48.4,42.2,29.71,SW,221,7.3,12.3,79,0.00,,,0.08,WSDL version 420,2013-03-06 13:03:00,
2013-03-06 05:08:00,48.4,42.2,29.71,SSW,203,5.6,13.2,79,0.00,,,0.08,WSDL version 420,2013-03-06 13:08:00,
2013-03-06 05:13:00,48.4,41.9,29.71,WSW,251,5.5,13.2,78,0.00,,,0.08,WSDL version 420,2013-03-06 13:13:00,
2013-03-06 05:18:00,48.4,41.8,29.71,WSW,240,7.2,9.8,78,0.00,,,0.08,WSDL version 420,2013-03-06 13:18:00,
2013-03-06 05:23:00,48.3,41.8,29.71,SSW,203,5.9,9.8,79,0.00,,,0.08,WSDL version 420,2013-03-06 13:23:00,
2013-03-06 05:28:00,48.2,42.0,29.71,SW,225,4.6,9.2,79,0.00,,,0.08,WSDL version 420,2013-03-06 13:28:00,
2013-03-06 05:33:00,48.2,42.1,29.74,SW,225,4.7,9.6,80,0.00,,,0.08,WSDL version 420,2013-03-06 13:33:00,
2013-03-06 05:38:00,48.0,42.2,29.74,SW,230,2.9,10.5,80,0.00,,,0.08,WSDL version 420,2013-03-06 13:38:00,
2013-03-06 05:43:00,48.0,42.2,29.74,SW,221,4.3,10.5,80,0.00,,,0.08,WSDL version 420,2013-03-06 13:43:00,
2013-03-06 05:48:00,47.9,42.0,29.74,WSW,244,3.1,8.1,80,0.00,,,0.08,WSDL version 420,2013-03-06 13:48:00,
2013-03-06 05:53:00,47.8,41.8,29.74,SSW,203,3.0,7.4,79,0.00,,,0.08,WSDL version 420,2013-03-06 13:53:00,
2013-03-06 05:58:00,47.7,41.8,29.74,SW,231,2.5,7.4,80,0.00,,,0.08,WSDL version 420,2013-03-06 13:58:00,
2013-03-06 06:03:00,47.6,41.7,29.74,SW,216,1.4,3.8,80,0.00,,,0.08,WSDL version 420,2013-03-06 14:03:00,
2013-03-06 06:08:00,47.5,41.6,29.74,SSW,206,1.6,4.0,80,0.00,,,0.08,WSDL version 420,2013-03-06 14:08:00,
2013-03-06 06:13:00,47.5,42.0,29.74,South,169,0.0,4.0,81,0.00,,,0.08,WSDL version 420,2013-03-06 14:13:00,
2013-03-06 06:18:00,47.5,42.0,29.74,WSW,248,0.0,2.2,81,0.00,,,0.08,WSDL version 420,2013-03-06 14:18:00,
2013-03-06 06:23:00,47.5,42.3,29.74,SSW,203,2.6,7.4,82,0.00,,,0.08,WSDL version 420,2013-03-06 14:23:00,
2013-03-06 06:28:00,47.7,42.5,29.74,SW,236,0.9,7.4,82,0.00,,,0.08,WSDL version 420,2013-03-06 14:28:00,
2013-03-06 06:33:00,47.8,42.8,29.77,SW,229,1.8,7.2,83,0.00,,,0.08,WSDL version 420,2013-03-06 14:33:00,
2013-03-06 06:38:00,48.0,43.2,29.77,SW,214,3.0,7.2,83,0.00,,,0.08,WSDL version 420,2013-03-06 14:38:00,
2013-03-06 06:43:00,48.0,43.2,29.77,SSW,205,0.7,5.6,83,0.00,,,0.08,WSDL version 420,2013-03-06 14:43:00,
2013-03-06 06:48:00,48.2,43.2,29.77,WSW,242,2.8,6.3,82,0.00,,,0.08,WSDL version 420,2013-03-06 14:48:00,
2013-03-06 06:53:00,48.3,43.0,29.77,SW,235,3.1,7.2,81,0.00,,,0.08,WSDL version 420,2013-03-06 14:53:00,
2013-03-06 06:58:00,48.4,42.9,29.77,SSW,212,0.5,7.2,81,0.00,,,0.08,WSDL version 420,2013-03-06 14:58:00,
2013-03-06 07:03:00,48.4,42.6,29.77,SW,214,3.4,6.0,79,0.00,,,0.08,WSDL version 420,2013-03-06 15:03:00,
2013-03-06 07:08:00,48.4,42.2,29.77,SW,214,1.5,6.0,79,0.00,,,0.08,WSDL version 420,2013-03-06 15:08:00,
2013-03-06 07:13:00,48.5,42.3,29.77,SW,225,2.3,4.3,79,0.00,,,0.08,WSDL version 420,2013-03-06 15:13:00,
2013-03-06 07:18:00,48.6,42.0,29.80,SW,225,2.4,5.4,78,0.00,,,0.08,WSDL version 420,2013-03-06 15:18:00,
2013-03-06 07:23:00,48.7,42.0,29.80,SSW,203,2.9,5.4,77,0.00,,,0.08,WSDL version 420,2013-03-06 15:23:00,
2013-03-06 07:28:00,48.8,42.0,29.80,SSW,203,1.8,4.0,78,0.00,,,0.08,WSDL version 420,2013-03-06 15:28:00,
2013-03-06 07:33:00,49.1,42.4,29.80,SSW,209,3.8,7.6,76,0.00,,,0.08,WSDL version 420,2013-03-06 15:33:00,
2013-03-06 07:38:00,49.4,42.1,29.80,SSW,208,3.1,7.6,76,0.00,,,0.08,WSDL version 420,2013-03-06 15:38:00,
2013-03-06 07:43:00,49.7,42.5,29.80,SW,233,3.5,7.6,76,0.00,,,0.08,WSDL version 420,2013-03-06 15:43:00,
2013-03-06 07:48:00,50.3,42.8,29.80,SW,225,3.4,9.2,75,0.00,,,0.08,WSDL version 420,2013-03-06 15:48:00,
2013-03-06 07:53:00,51.4,43.2,29.80,SW,214,4.9,9.2,72,0.00,,,0.08,WSDL version 420,2013-03-06 15:53:00,
2013-03-06 07:58:00,52.1,43.2,29.80,SW,225,3.4,8.1,71,0.00,,,0.08,WSDL version 420,2013-03-06 15:58:00,
2013-03-06 08:03:00,52.4,42.9,29.80,SW,228,4.2,7.2,69,0.00,,,0.08,WSDL version 420,2013-03-06 16:03:00,
2013-03-06 08:08:00,52.9,43.1,29.80,SW,225,2.4,7.2,70,0.00,,,0.08,WSDL version 420,2013-03-06 16:08:00,
2013-03-06 08:13:00,52.8,41.8,29.80,SSW,206,3.0,7.6,65,0.00,,,0.08,WSDL version 420,2013-03-06 16:13:00,
2013-03-06 08:18:00,52.1,39.8,29.80,SSW,203,3.3,7.6,63,0.00,,,0.08,WSDL version 420,2013-03-06 16:18:00,
2013-03-06 08:23:00,51.7,39.9,29.80,SW,221,4.1,7.6,65,0.00,,,0.08,WSDL version 420,2013-03-06 16:23:00,
2013-03-06 08:28:00,51.9,40.2,29.80,SW,220,4.7,7.6,64,0.00,,,0.08,WSDL version 420,2013-03-06 16:28:00,
2013-03-06 08:33:00,52.4,41.0,29.80,SW,235,3.7,7.2,65,0.00,,,0.08,WSDL version 420,2013-03-06 16:33:00,
2013-03-06 08:38:00,52.3,40.2,29.80,SW,215,4.0,6.5,63,0.00,,,0.08,WSDL version 420,2013-03-06 16:38:00,
2013-03-06 08:43:00,52.7,39.9,29.80,SW,233,4.0,8.5,62,0.00,,,0.08,WSDL version 420,2013-03-06 16:43:00,
2013-03-06 08:48:00,54.0,41.0,29.83,SW,218,4.2,8.5,61,0.00,,,0.08,WSDL version 420,2013-03-06 16:48:00,
2013-03-06 08:53:00,54.6,40.5,29.83,SSW,213,4.6,6.5,58,0.00,,,0.08,WSDL version 420,2013-03-06 16:53:00,
2013-03-06 08:58:00,54.4,39.0,29.83,SW,222,4.6,8.5,55,0.00,,,0.08,WSDL version 420,2013-03-06 16:58:00,
2013-03-06 09:03:00,53.8,38.4,29.83,SW,223,5.6,8.5,55,0.00,,,0.08,WSDL version 420,2013-03-06 17:03:00,
2013-03-06 09:08:00,54.3,38.6,29.83,SW,223,4.3,8.1,56,0.00,,,0.08,WSDL version 420,2013-03-06 17:08:00,
2013-03-06 09:13:00,55.1,39.1,29.83,SW,215,5.4,8.5,53,0.00,,,0.08,WSDL version 420,2013-03-06 17:13:00,
2013-03-06 09:18:00,56.1,39.3,29.83,SW,231,6.2,12.5,51,0.00,,,0.08,WSDL version 420,2013-03-06 17:18:00,
2013-03-06 09:23:00,56.0,37.9,29.83,SW,231,6.2,12.5,51,0.00,,,0.08,WSDL version 420,2013-03-06 17:23:00,
2013-03-06 09:28:00,55.4,37.9,29.83,SW,225,6.6,10.5,52,0.00,,,0.08,WSDL version 420,2013-03-06 17:28:00,
2013-03-06 09:34:00,55.7,38.6,29.83,SW,222,6.2,10.5,53,0.00,,,0.08,WSDL version 420,2013-03-06 17:34:00,
2013-03-06 09:43:00,56.4,39.5,29.83,North,-999,-999.0,-999.0,52,0.00,,,0.08,WSDL version 420,2013-03-06 17:43:00,
2013-03-06 09:48:00,56.1,38.6,29.83,North,-999,-999.0,-999.0,51,0.00,,,0.08,WSDL version 420,2013-03-06 17:48:00,
2013-03-06 09:53:00,55.2,37.8,29.83,SW,219,5.4,10.1,52,0.00,,,0.08,WSDL version 420,2013-03-06 17:53:00,
2013-03-06 09:58:00,54.9,37.5,29.83,SSW,213,5.3,10.3,52,0.00,,,0.08,WSDL version 420,2013-03-06 17:58:00,
2013-03-06 10:03:00,55.3,37.9,29.83,SW,225,4.3,10.3,51,0.00,,,0.08,WSDL version 420,2013-03-06 18:03:00,
2013-03-06 10:09:00,55.8,38.1,29.83,SW,215,4.8,9.4,51,0.00,,,0.08,WSDL version 420,2013-03-06 18:09:00,
2013-03-06 10:18:00,55.9,37.1,29.83,SW,217,5.8,10.3,49,0.00,,,0.08,WSDL version 420,2013-03-06 18:18:00,
2013-03-06 10:24:00,55.7,36.5,29.83,SW,220,5.7,10.3,48,0.00,,,0.08,WSDL version 420,2013-03-06 18:24:00,
2013-03-06 10:33:00,55.7,36.3,29.83,SW,225,8.8,15.9,47,0.00,,,0.08,WSDL version 420,2013-03-06 18:33:00,
2013-03-06 10:38:00,55.1,35.4,29.83,SW,218,5.5,15.9,48,0.00,,,0.08,WSDL version 420,2013-03-06 18:38:00,
2013-03-06 10:43:00,55.2,36.6,29.83,SSW,211,4.1,9.6,50,0.00,,,0.08,WSDL version 420,2013-03-06 18:43:00,
2013-03-06 10:48:00,55.5,36.2,29.83,SW,228,7.9,12.5,48,0.00,,,0.08,WSDL version 420,2013-03-06 18:48:00,
2013-03-06 10:53:00,56.0,36.6,29.83,SW,229,6.0,15.2,48,0.00,,,0.08,WSDL version 420,2013-03-06 18:53:00,
2013-03-06 10:58:00,56.3,37.1,29.83,SW,231,4.8,15.2,49,0.00,,,0.08,WSDL version 420,2013-03-06 18:58:00,
2013-03-06 11:03:00,56.5,36.5,29.85,SW,217,6.6,11.2,47,0.00,,,0.08,WSDL version 420,2013-03-06 19:03:00,
2013-03-06 11:08:00,56.7,36.5,29.85,SSW,193,8.0,12.3,46,0.00,,,0.08,WSDL version 420,2013-03-06 19:08:00,
2013-03-06 11:13:00,57.1,37.0,29.85,SW,219,5.3,12.3,46,0.00,,,0.08,WSDL version 420,2013-03-06 19:13:00,
2013-03-06 11:18:00,57.7,37.4,29.85,SW,217,4.4,10.3,45,0.00,,,0.08,WSDL version 420,2013-03-06 19:18:00,
2013-03-06 11:23:00,57.5,36.3,29.85,SW,230,6.6,10.3,44,0.00,,,0.08,WSDL version 420,2013-03-06 19:23:00,
2013-03-06 11:28:00,56.5,34.7,29.85,SW,225,8.2,11.2,43,0.00,,,0.08,WSDL version 420,2013-03-06 19:28:00,
2013-03-06 11:33:00,56.6,35.4,29.85,SW,235,2.2,11.2,46,0.00,,,0.08,WSDL version 420,2013-03-06 19:33:00,
2013-03-06 11:39:00,56.8,35.4,29.85,SW,222,5.5,11.9,44,0.00,,,0.08,WSDL version 420,2013-03-06 19:39:00,
2013-03-06 11:49:00,57.2,36.4,29.85,SW,225,4.9,8.1,45,0.00,,,0.08,WSDL version 420,2013-03-06 19:49:00,
2013-03-06 11:53:00,57.3,36.2,29.85,WSW,248,3.7,8.5,45,0.00,,,0.08,WSDL version 420,2013-03-06 19:53:00,
2013-03-06 11:58:00,57.1,36.1,29.85,SW,219,6.6,12.1,46,0.00,,,0.08,WSDL version 420,2013-03-06 19:58:00,
2013-03-06 12:03:00,57.4,36.2,29.85,SSW,205,6.8,12.1,45,0.00,,,0.08,WSDL version 420,2013-03-06 20:03:00,
2013-03-06 12:09:00,57.7,36.5,29.85,WSW,240,4.1,11.0,45,0.00,,,0.08,WSDL version 420,2013-03-06 20:09:00,